CW6532 Weather Reports


Display with metric or nautical units.
time (UTC)temp
F
wind
direction
speed
MPH
gust
MPH
rain 1hr
in
rain 24hr
in
rain mn
in
humidity
%
barometer
mb
20200527040329 85 56 1.0 3.0 0.00 0.00 0.00 8 1012.8
20200527035328 85 56 3.0 4.0 0.00 0.00 0.00 7 1012.6
20200527034328 85 57 3.0 6.0 0.00 0.00 0.00 7 1012.4
20200527033331 86 317 3.0 6.0 0.00 0.00 0.00 7 1012.1
20200527032330 86 316 4.0 8.0 0.00 0.00 0.00 7 1012.2
20200527031330 87 323 4.0 6.0 0.00 0.00 0.00 7 1012.1
20200527030314 87 323 4.0 9.0 0.00 0.00 0.00 7 1012.0
20200527025313 88 307 5.0 11.0 0.00 0.00 0.00 6 1012.0
20200527024314 88 312 5.0 10.0 0.00 0.00 0.00 6 1011.8
20200527023317 89 302 4.0 9.0 0.00 0.00 0.00 6 1011.9
20200527022316 90 307 5.0 9.0 0.00 0.00 0.00 6 1011.7
20200527021316 90 309 5.0 10.0 0.00 0.00 0.00 6 1011.8
20200527020316 91 303 6.0 9.0 0.00 0.00 0.00 5 1011.7
20200527015319 92 304 6.0 11.0 0.00 0.00 0.00 5 1011.7
20200527014319 93 302 6.0 12.0 0.00 0.00 0.00 5 1011.5
20200527013319 93 304 9.0 13.0 0.00 0.00 0.00 5 1011.6
20200527012322 93 310 7.0 13.0 0.00 0.00 0.00 5 1011.5
20200527011323 93 256 8.0 15.0 0.00 0.00 0.00 5 1011.4
20200527010322 94 288 9.0 14.0 0.00 0.00 0.00 5 1011.4
20200527005325 94 304 5.0 14.0 0.00 0.00 0.00 5 1011.2
20200527004325 95 305 9.0 13.0 0.00 0.00 0.00 5 1011.3
20200527003325 95 295 7.0 12.0 0.00 0.00 0.00 5 1011.3
20200527002328 95 270 8.0 17.0 0.00 0.00 0.00 5 1011.3
20200527001327 96 262 6.0 9.0 0.00 0.00 0.00 5 1011.4
20200527000327 96 271 5.0 12.0 0.00 0.00 0.00 5 1011.6
20200526235327 96 312 4.0 12.0 0.00 0.00 0.00 5 1011.6
20200526234331 96 240 6.0 11.0 0.00 0.00 0.00 5 1011.7
20200526233331 96 268 6.0 10.0 0.00 0.00 0.00 5 1011.7
20200526232329 95 284 10.0 17.0 0.00 0.00 0.00 5 1011.9
20200526231313 96 305 9.0 14.0 0.00 0.00 0.00 5 1011.9
20200526230332 96 14 3.0 12.0 0.00 0.00 0.00 5 1011.8
20200526225331 96 316 6.0 17.0 0.00 0.00 0.00 5 1011.7
20200526224315 96 267 5.0 9.0 0.00 0.00 0.00 5 1011.9
20200526223314 94 298 4.0 11.0 0.00 0.00 0.00 5 1011.9
20200526222313 95 11 7.0 13.0 0.00 0.00 0.00 5 1011.9
20200526221316 95 313 6.0 14.0 0.00 0.00 0.00 5 1011.9
20200526220335 95 355 8.0 16.0 0.00 0.00 0.00 4 1012.0
20200526215330 96 311 8.0 15.0 0.00 0.00 0.00 5 1012.2
20200526214314 96 338 2.0 8.0 0.00 0.00 0.00 5 1012.2
20200526213314 95 179 4.0 15.0 0.00 0.00 0.00 5 1012.3
20200526212313 96 215 5.0 11.0 0.00 0.00 0.00 5 1012.4
20200526211332 96 263 6.0 10.0 0.00 0.00 0.00 5 1012.5
20200526210316 94 239 4.0 16.0 0.00 0.00 0.00 5 1012.6
20200526205316 94 248 4.0 10.0 0.00 0.00 0.00 5 1012.7
20200526204316 93 294 7.0 16.0 0.00 0.00 0.00 5 1012.9
20200526203320 93 316 9.0 13.0 0.00 0.00 0.00 5 1012.9
20200526202318 93 325 8.0 20.0 0.00 0.00 0.00 5 1012.8
20200526201318 92 344 11.0 20.0 0.00 0.00 0.00 6 1012.9
20200526200321 93 302 11.0 18.0 0.00 0.00 0.00 5 1012.9
20200526195320 93 300 10.0 17.0 0.00 0.00 0.00 5 1013.0
20200526194320 94 235 7.0 14.0 0.00 0.00 0.00 5 1013.2
20200526193325 93 298 2.0 8.0 0.00 0.00 0.00 6 1013.2
20200526192323 91 306 10.0 19.0 0.00 0.00 0.00 6 1013.3
20200526191323 91 114 5.0 12.0 0.00 0.00 0.00 6 1013.4
20200526190323 92 194 7.0 11.0 0.00 0.00 0.00 6 1013.5
20200526185327 93 137 4.0 7.0 0.00 0.00 0.00 6 1013.7
20200526184327 92 96 6.0 10.0 0.00 0.00 0.00 6 1013.6
20200526183327 91 89 6.0 10.0 0.00 0.00 0.00 6 1013.9
20200526182330 91 24 2.0 9.0 0.00 0.00 0.00 6 1014.1
20200526181330 91 34 1.0 8.0 0.00 0.00 0.00 6 1014.2
20200526180330 91 348 2.0 9.0 0.00 0.00 0.00 7 1014.2
20200526175333 90 355 5.0 10.0 0.00 0.00 0.00 7 1014.1
20200526174333 91 23 5.0 10.0 0.00 0.00 0.00 7 1014.2
20200526173332 91 61 5.0 8.0 0.00 0.00 0.00 7 1014.1
20200526172316 90 227 1.0 5.0 0.00 0.00 0.00 7 1014.2
20200526171315 90 15 1.0 8.0 0.00 0.00 0.00 7 1014.2
20200526170315 89 249 4.0 7.0 0.00 0.00 0.00 7 1014.3
20200526165318 87 123 2.0 6.0 0.00 0.00 0.00 8 1014.3
20200526164317 86 76 3.0 6.0 0.00 0.00 0.00 8 1014.3
20200526163317 85 257 4.0 10.0 0.00 0.00 0.00 8 1014.4
20200526162316 85 215 2.0 7.0 0.00 0.00 0.00 8 1014.4
20200526161320 84 129 4.0 8.0 0.00 0.00 0.00 8 1014.4
20200526160319 84 249 5.0 9.0 0.00 0.00 0.00 8 1014.5
20200526155318 84 156 1.0 8.0 0.00 0.00 0.00 8 1014.7
20200526154322 84 18 0.0 5.0 0.00 0.00 0.00 9 1014.7
20200526153322 83 13 1.0 5.0 0.00 0.00 0.00 9 1014.7
20200526152321 83 13 2.0 6.0 0.00 0.00 0.00 10 1014.6
20200526151324 82 48 1.0 3.0 0.00 0.00 0.00 10 1014.6
20200526150324 81 49 3.0 5.0 0.00 0.00 0.00 10 1014.6
20200526145322 81 5 2.0 3.0 0.00 0.00 0.00 10 1014.5
20200526144327 80 360 1.0 2.0 0.00 0.00 0.00 10 1014.4
20200526143326 79 360 1.0 4.0 0.00 0.00 0.00 11 1014.4
20200526142325 78 324 1.0 3.0 0.00 0.00 0.00 12 1014.3
20200526141325 76 225 2.0 3.0 0.00 0.00 0.00 12 1014.3
20200526140328 75 223 5.0 6.0 0.00 0.00 0.00 13 1014.1
20200526135326 74 236 0.0 3.0 0.00 0.00 0.00 12 1014.0
20200526134326 73 236 2.0 5.0 0.00 0.00 0.00 13 1013.9
20200526133330 72 193 1.0 3.0 0.00 0.00 0.00 13 1013.9
20200526132328 72 193 4.0 5.0 0.00 0.00 0.00 13 1013.9
20200526131328 72 190 4.0 6.0 0.00 0.00 0.00 12 1013.8
20200526130332 71 193 3.0 6.0 0.00 0.00 0.00 13 1013.6
20200526125331 73 124 0.0 2.0 0.00 0.00 0.00 12 1013.5
20200526124332 73 124 3.0 4.0 0.00 0.00 0.00 12 1013.3
20200526123315 72 125 3.0 4.0 0.00 0.00 0.00 12 1013.2
20200526122333 72 125 3.0 3.0 0.00 0.00 0.00 12 1013.2
20200526121333 72 125 2.0 3.0 0.00 0.00 0.00 12 1013.1
20200526120316 72 125 2.0 3.0 0.00 0.00 0.00 12 1013.0
20200526115314 71 125 2.0 3.0 0.00 0.00 0.00 12 1013.0
20200526114316 70 125 2.0 4.0 0.00 0.00 0.00 13 1012.9
20200526113315 70 126 3.0 4.0 0.00 0.00 0.00 13 1012.8
20200526112318 70 126 2.0 3.0 0.00 0.00 0.00 13 1012.9
20200526111318 70 127 1.0 3.0 0.00 0.00 0.00 13 1013.0
20200526110318 71 128 2.0 3.0 0.00 0.00 0.00 12 1012.9
20200526105320 73 130 1.0 3.0 0.00 0.00 0.00 12 1012.8
20200526104320 72 134 2.0 3.0 0.00 0.00 0.00 12 1012.8
20200526103320 72 134 2.0 4.0 0.00 0.00 0.00 13 1012.8
20200526102322 73 136 4.0 7.0 0.00 0.00 0.00 12 1012.7
20200526101322 72 140 4.0 5.0 0.00 0.00 0.00 12 1012.8
20200526100322 72 136 3.0 4.0 0.00 0.00 0.00 13 1012.8
20200526095324 72 138 3.0 5.0 0.00 0.00 0.00 13 1012.9
20200526094324 71 136 3.0 5.0 0.00 0.00 0.00 13 1012.9
20200526093324 72 138 4.0 7.0 0.00 0.00 0.00 12 1012.9
20200526092323 72 137 3.0 7.0 0.00 0.00 0.00 12 1012.9
20200526091326 73 157 6.0 9.0 0.00 0.00 0.00 12 1012.9
20200526090325 73 177 7.0 11.0 0.00 0.00 0.00 12 1012.8
20200526085323 73 190 7.0 11.0 0.00 0.00 0.00 11 1012.7
20200526084327 73 180 7.0 9.0 0.00 0.00 0.00 11 1012.8
20200526083327 73 177 6.0 9.0 0.00 0.00 0.00 11 1012.9
20200526082325 73 170 8.0 10.0 0.00 0.00 0.00 11 1012.8
20200526081329 73 166 5.0 8.0 0.00 0.00 0.00 11 1012.6
20200526080329 74 175 7.0 9.0 0.00 0.00 0.00 11 1012.5
20200526075327 74 176 7.0 9.0 0.00 0.00 0.00 11 1012.5
20200526074332 74 175 8.0 10.0 0.00 0.00 0.00 12 1012.6
20200526073332 73 176 8.0 10.0 0.00 0.00 0.00 12 1012.7
20200526072330 73 200 7.0 9.0 0.00 0.00 0.00 12 1012.6
20200526071316 73 200 6.0 9.0 0.00 0.00 0.00 12 1012.6
20200526070316 72 189 7.0 9.0 0.00 0.00 0.00 13 1012.6
20200526065315 72 181 3.0 5.0 0.00 0.00 0.00 12 1012.5
20200526064316 74 181 2.0 8.0 0.00 0.00 0.00 12 1012.4
20200526063320 74 203 6.0 7.0 0.00 0.00 0.00 11 1012.4
20200526062318 76 207 6.0 7.0 0.00 0.00 0.00 11 1012.3
20200526061318 76 193 5.0 7.0 0.00 0.00 0.00 10 1012.2
20200526060323 77 200 6.0 6.0 0.00 0.00 0.00 10 1012.3
20200526055321 77 200 6.0 6.0 0.00 0.00 0.00 10 1012.3
20200526054322 78 82 2.0 3.0 0.00 0.00 0.00 10 1012.3
20200526053326 79 79 2.0 3.0 0.00 0.00 0.00 10 1012.3
20200526052324 78 79 0.0 2.0 0.00 0.00 0.00 10 1012.3
20200526051324 78 79 2.0 3.0 0.00 0.00 0.00 10 1012.5
20200526050328 79 78 1.0 2.0 0.00 0.00 0.00 10 1012.5
20200526045327 78 78 0.0 0.0 0.00 0.00 0.00 10 1012.5
20200526044327 79 78 0.0 0.0 0.00 0.00 0.00 9 1012.4
20200526043327 80 78 0.0 3.0 0.00 0.00 0.00 9 1012.3
20200526042329 79 78 2.0 3.0 0.00 0.00 0.00 9 1012.2
20200526041330 79 78 2.0 4.0 0.00 0.00 0.00 10 1012.1